Location: Unspecified
(52.1971°N, 0.0000°E)
Time: 22:03:58
(UTC+00:00)

YUBILEINY - Pass Details

Date: 23 December 2019
Orbit: 1478 x 1509 km, 82.5° (Epoch: 19 January)

Event Time Altitude Azimuth Distance (km) Brightness Sun altitude
Rises 06:32:27 0° 348° (NNW) 4,613 ? -13.4°
Reaches altitude 10° 06:35:22 10° 351° (N) 3,630 ? -13.0°
Maximum altitude 06:44:06 72° 76° (ENE) 1,551 ? -11.8°
Drops below altitude 10° 06:52:48 10° 161° (SSE) 3,627 ? -10.5°
Sets 06:55:42 0° 163° (SSE) 4,607 ? -10.1°
